Tacoma Narrows, WA
on Monday, December 31, 2012

Monday
Previous Day Next Day
Daily Summary
 ActualAverageRecord
Temperature
Mean Temperature °F °F  
Max Temperature 37°F 43°F 53°F (1996)
Min Temperature 33°F 36°F 24°F (2010)
Degree Days
Heating Degree Days 30    
Moisture
Dew Point 32°F   
Average Humidity 86    
Maximum Humidity 93    
Minimum Humidity 75    
Precipitation
Precipitation 0.00 in in in ()
Wind
Wind Speed 1 mph   
Max Wind Speed 8 mph   
Max Gust Speed mph   
Visibility 9 miles   
Events     
Averages and records for this station are not official NWS values.
Key: T is trace of precipitation, MM is missing value
Source: NWS Daily Summary
Seasonal Weather Averages
Time(PST)TemperatureDew PointHumidity Pressure Visibility Wind DirectionWind SpeedGust SpeedPrecipitationEvents Conditions
12:53 AM 35.1°F 32.0°F 89% 30.30 in 5.0 miles Calm Calm - N/A   Clear
1:29 AM 33.8°F 30.2°F 87% 30.28 in 7.0 miles Calm Calm - N/A   Partly Cloudy
1:43 AM 33.8°F 32.0°F 93% 30.29 in 7.0 miles Calm Calm - N/A   Mostly Cloudy
1:53 AM 34.0°F 30.9°F 89% 30.30 in 5.0 miles Calm Calm - N/A   Scattered Clouds
2:32 AM 33.8°F 30.2°F 87% 30.29 in 4.0 miles Calm Calm - N/A   Mostly Cloudy
2:53 AM 34.0°F 32.0°F 92% 30.30 in 4.0 miles Calm Calm - N/A   Overcast
3:35 AM 35.6°F 33.8°F 93% 30.28 in 2.5 miles Calm Calm - N/A   Overcast
3:42 AM 33.8°F 32.0°F 93% 30.27 in 5.0 miles Calm Calm - N/A   Overcast
3:53 AM 35.1°F 32.0°F 89% 30.28 in 7.0 miles Calm Calm - N/A   Overcast
4:53 AM 35.1°F 33.1°F 92% 30.27 in 4.0 miles Calm Calm - N/A   Overcast
5:35 AM 33.8°F 32.0°F 93% 30.24 in 9.0 miles Calm Calm - N/A   Overcast
5:53 AM 34.0°F 30.9°F 89% 30.26 in 10.0 miles Calm Calm - N/A   Overcast
6:34 AM 33.8°F 32.0°F 93% 30.25 in 10.0 miles Calm Calm - N/A   Mostly Cloudy
6:53 AM 34.0°F 32.0°F 92% 30.26 in 8.0 miles Calm Calm - N/A   Overcast
7:53 AM 35.1°F 33.1°F 92% 30.28 in 6.0 miles Calm Calm - N/A   Overcast
8:53 AM 36.0°F 32.0°F 86% 30.30 in 10.0 miles Calm Calm - N/A   Overcast
8:55 AM 35.6°F 32.0°F 87% 30.29 in 10.0 miles Calm Calm - N/A   Mostly Cloudy
9:53 AM 37.0°F 34.0°F 89% 30.32 in 10.0 miles Calm Calm - N/A   Mostly Cloudy
10:53 AM 37.9°F 33.1°F 83% 30.33 in 10.0 miles Calm Calm - N/A   Overcast
11:53 AM 37.0°F 32.0°F 82% 30.33 in 10.0 miles Calm Calm - N/A   Overcast
12:53 PM 37.0°F 30.0°F 76% 30.33 in 10.0 miles WNW 3.5 mph - N/A   Overcast
1:05 PM 37.4°F 30.2°F 75% 30.31 in 10.0 miles NW 3.5 mph - N/A   Overcast
1:53 PM 37.9°F 30.9°F 76% 30.33 in 10.0 miles Calm Calm - N/A   Overcast
1:55 PM 37.4°F 30.2°F 75% 30.32 in 10.0 miles Calm Calm - N/A   Overcast
2:53 PM 37.9°F 33.1°F 83% 30.33 in 10.0 miles Calm Calm - N/A   Scattered Clouds
3:53 PM 37.9°F 33.1°F 83% 30.33 in 10.0 miles Calm Calm - N/A   Scattered Clouds
4:07 PM 37.4°F 33.8°F 87% 30.32 in 10.0 miles Calm Calm - N/A   Mostly Cloudy
4:53 PM 37.9°F 34.0°F 86% 30.35 in 10.0 miles WNW 3.5 mph - N/A   Overcast
5:15 PM 37.4°F 33.8°F 87% 30.33 in 10.0 miles West 3.5 mph - N/A   Overcast
5:53 PM 35.6°F 33.8°F 93% 30.35 in 9.0 miles NNW 6.9 mph - N/A   Mostly Cloudy
6:53 PM 34.0°F 30.9°F 89% 30.38 in 10.0 miles North 4.6 mph - N/A   Scattered Clouds
7:51 PM 37.4°F 33.8°F 87% 30.40 in 10.0 miles NNE 5.8 mph - N/A   Overcast
7:52 PM 37.9°F 33.1°F 83% 30.41 in 10.0 miles NNE 4.6 mph - N/A   Overcast
8:40 PM 37.4°F 33.8°F 87% 30.41 in 10.0 miles NNE 5.8 mph - N/A   Overcast
8:53 PM 37.9°F 33.1°F 83% 30.43 in 10.0 miles ENE 6.9 mph - N/A   Overcast
9:02 PM 37.4°F 33.8°F 87% 30.41 in 10.0 miles NE 8.1 mph - N/A   Overcast
9:42 PM 37.4°F 32.0°F 81% 30.42 in 10.0 miles East 4.6 mph - N/A   Mostly Cloudy
9:53 PM 37.4°F 32.0°F 81% 30.42 in 10.0 miles Variable 4.6 mph - N/A   Mostly Cloudy
10:04 PM 35.6°F 32.0°F 87% 30.43 in 10.0 miles Calm Calm - N/A   Scattered Clouds
10:18 PM 35.6°F 32.0°F 87% 30.43 in 10.0 miles Calm Calm - N/A   Mostly Cloudy
10:53 PM 35.1°F 30.9°F 85% 30.46 in 10.0 miles Calm Calm - N/A   Mostly Cloudy
11:39 PM 35.6°F 30.2°F 81% 30.44 in 10.0 miles Calm Calm - N/A   Scattered Clouds
11:53 PM 34.0°F 30.0°F 85% 30.45 in 10.0 miles Calm Calm - N/A   Clear
Moon Phase
Dec. 31 Jan. 04 Jan. 11 Jan. 18 Jan. 26
Sunrise:07:57 AM (PST) Moon Rise:08:22 PM (PST)12/31
Sunset:04:30 PM (PST) Moon Set:09:27 AM (PST)12/31

Copyright © 2014 The Weather Underground, Inc.